W5CGC Weather Reports


Display with metric or nautical units.
time (UTC)temp
F
wind
direction
speed
MPH
gust
MPH
rain 1hr
in
rain 24hr
in
rain mn
in
humidity
%
barometer
mb
20260505010037 77 89 3.0 12.0 0.00 0.00 0.00 49 1005.3
20260505004535 77 42 4.0 14.0 0.00 0.00 0.00 49 1005.2
20260505003038 77 52 4.0 16.0 0.00 0.00 0.00 48 1005.2
20260505001532 78 39 3.0 12.0 0.00 0.00 0.00 48 1005.3
20260505000038 78 354 5.0 17.0 0.00 0.00 0.00 47 1005.6
20260504234536 79 281 3.0 13.0 0.00 0.00 0.00 46 1005.5
20260504233033 79 129 2.0 14.0 0.00 0.00 0.00 46 1005.7
20260504231541 79 29 5.0 13.0 0.00 0.00 0.00 45 1005.6
20260504230034 80 30 3.0 12.0 0.00 0.00 0.00 44 1005.6
20260504224533 81 302 6.0 18.0 0.00 0.00 0.00 42 1006.0
20260504223034 81 39 5.0 19.0 0.00 0.00 0.00 42 1005.9
20260504221535 81 13 4.0 16.0 0.00 0.00 0.00 42 1005.9
20260504220035 82 46 4.0 15.0 0.00 0.00 0.00 42 1006.0
20260504214534 82 6 2.0 13.0 0.00 0.00 0.00 42 1006.2
20260504213038 82 8 5.0 12.0 0.00 0.00 0.00 41 1006.5
20260504211533 83 106 4.0 12.0 0.00 0.00 0.00 40 1006.7
20260504210035 82 6 5.0 15.0 0.00 0.00 0.00 40 1007.1
20260504204533 81 319 4.0 15.0 0.00 0.00 0.00 41 1007.4
20260504203050 81 11 4.0 13.0 0.00 0.00 0.00 42 1007.5
20260504201535 81 13 5.0 14.0 0.00 0.00 0.00 41 1008.0
20260504200032 80 110 4.0 14.0 0.00 0.00 0.00 41 1008.3
20260504194535 81 32 4.0 14.0 0.00 0.00 0.00 41 1008.9
20260504193034 80 357 5.0 13.0 0.00 0.00 0.00 41 1009.0
20260504191535 80 352 3.0 12.0 0.00 0.00 0.00 41 1009.1
20260504190050 80 274 4.0 13.0 0.00 0.00 0.00 41 1009.4
20260504184536 79 360 5.0 16.0 0.00 0.00 0.00 41 1009.6
20260504183035 78 303 4.0 13.0 0.00 0.00 0.00 42 1009.8
20260504181535 78 43 2.0 17.0 0.00 0.00 0.00 45 1010.0
20260504180039 78 29 3.0 13.0 0.00 0.00 0.00 43 1010.3
20260504174536 77 316 3.0 16.0 0.00 0.00 0.00 45 1010.5
20260504173035 76 286 5.0 16.0 0.00 0.00 0.00 43 1010.8
20260504171539 76 343 4.0 12.0 0.00 0.00 0.00 43 1010.9
20260504081542 65 105 2.0 12.0 0.00 0.00 0.00 46 1013.2
20260504044536 68 88 0.0 5.0 0.00 0.00 0.00 39 1015.4
20260504043036 68 110 1.0 5.0 0.00 0.00 0.00 38 1015.5
20260504041534 68 77 0.0 4.0 0.00 0.00 0.00 38 1015.7
20260504040035 68 43 1.0 6.0 0.00 0.00 0.00 37 1015.7
20260504034535 69 87 2.0 7.0 0.00 0.00 0.00 37 1015.4
20260504033040 69 82 1.0 4.0 0.00 0.00 0.00 36 1015.5
20260504031534 70 0 1.0 5.0 0.00 0.00 0.00 34 1015.5
20260504030041 70 51 1.0 7.0 0.00 0.00 0.00 33 1015.3
20260504024532 71 42 0.0 5.0 0.00 0.00 0.00 31 1015.4
20260504023035 72 37 2.0 7.0 0.00 0.00 0.00 30 1015.3
20260504021531 73 0 1.0 9.0 0.00 0.00 0.00 28 1015.2
20260504020037 73 107 3.0 7.0 0.00 0.00 0.00 27 1015.1
20260504014549 74 240 2.0 12.0 0.00 0.00 0.00 26 1015.2
20260504013040 74 11 3.0 9.0 0.00 0.00 0.00 25 1015.1
20260504011536 75 27 2.0 8.0 0.00 0.00 0.00 25 1014.9